Time,TemperatureF,DewpointF,PressureIn,WindDirection,WindDirectionDegrees,WindSpeedMPH,WindSpeedGustMPH,Humidity,HourlyPrecipIn,Conditions,Clouds,dailyrainin,SoftwareType,DateUTC
2013-01-18 00:02:00,33.7,33.7,30.24,ESE,102,0.0,0.0,100,0.00,,,0.00,Wunderground v.1.15,2013-01-18 08:02:00,
2013-01-18 00:07:00,33.7,33.7,30.24,ESE,102,0.0,0.0,100,0.00,,,0.00,Wunderground v.1.15,2013-01-18 08:07:00,
2013-01-18 00:17:00,33.5,33.5,30.24,ESE,102,0.0,0.0,100,0.00,,,0.00,Wunderground v.1.15,2013-01-18 08:17:00,
2013-01-18 00:22:00,33.5,33.5,30.24,ESE,102,0.0,0.0,100,0.00,,,0.00,Wunderground v.1.15,2013-01-18 08:22:00,
2013-01-18 00:32:00,33.2,33.2,30.24,ESE,102,0.0,0.0,100,0.00,,,0.00,Wunderground v.1.15,2013-01-18 08:32:00,
2013-01-18 00:42:00,33.1,33.1,30.24,ESE,112,0.0,0.0,100,0.00,,,0.00,Wunderground v.1.15,2013-01-18 08:42:00,
2013-01-18 00:52:00,33.1,33.1,30.24,ESE,112,0.0,0.0,100,0.00,,,0.00,Wunderground v.1.15,2013-01-18 08:52:00,
2013-01-18 01:02:00,32.9,32.9,30.24,ESE,112,0.0,0.0,100,0.00,,,0.00,Wunderground v.1.15,2013-01-18 09:02:00,
2013-01-18 01:07:00,32.9,32.9,30.24,ESE,112,0.0,0.0,100,0.00,,,0.00,Wunderground v.1.15,2013-01-18 09:07:00,
2013-01-18 01:12:00,32.9,32.9,30.24,ESE,112,0.0,0.0,100,0.00,,,0.00,Wunderground v.1.15,2013-01-18 09:12:00,
2013-01-18 01:22:00,32.9,32.9,30.24,ESE,112,0.0,0.0,100,0.00,,,0.00,Wunderground v.1.15,2013-01-18 09:22:00,
2013-01-18 01:27:00,32.7,32.7,30.24,ESE,112,0.0,0.0,100,0.00,,,0.00,Wunderground v.1.15,2013-01-18 09:27:00,
2013-01-18 01:37:00,32.2,32.2,30.24,ESE,112,0.0,0.0,100,0.00,,,0.00,Wunderground v.1.15,2013-01-18 09:37:00,
2013-01-18 01:47:00,31.9,31.9,30.24,ESE,112,0.0,0.0,100,0.00,,,0.00,Wunderground v.1.15,2013-01-18 09:47:00,
2013-01-18 01:57:00,31.9,31.9,30.24,ESE,112,0.0,0.0,100,0.00,,,0.00,Wunderground v.1.15,2013-01-18 09:57:00,
2013-01-18 02:02:00,32.1,32.1,30.23,ESE,116,0.0,0.0,100,0.00,,,0.00,Wunderground v.1.15,2013-01-18 10:02:00,
2013-01-18 02:07:00,32.1,32.1,30.23,ESE,116,0.0,0.0,100,0.00,,,0.00,Wunderground v.1.15,2013-01-18 10:07:00,
2013-01-18 02:17:00,32.1,32.1,30.24,ESE,116,0.0,0.0,100,0.00,,,0.00,Wunderground v.1.15,2013-01-18 10:17:00,
2013-01-18 02:27:00,31.9,31.9,30.24,ESE,116,0.0,0.0,100,0.00,,,0.00,Wunderground v.1.15,2013-01-18 10:27:00,
2013-01-18 02:37:00,31.9,31.9,30.23,ESE,116,0.0,0.0,100,0.00,,,0.00,Wunderground v.1.15,2013-01-18 10:37:00,
2013-01-18 02:42:00,31.8,31.8,30.23,ESE,116,0.0,0.0,100,0.00,,,0.00,Wunderground v.1.15,2013-01-18 10:42:00,
2013-01-18 02:52:00,31.8,31.8,30.22,ESE,116,0.0,0.0,100,0.00,,,0.00,Wunderground v.1.15,2013-01-18 10:52:00,
2013-01-18 03:02:00,31.8,31.8,30.23,ESE,113,0.0,6.0,100,0.00,,,0.00,Wunderground v.1.15,2013-01-18 11:02:00,
2013-01-18 03:07:00,31.9,31.9,30.23,ESE,113,0.0,6.0,100,0.00,,,0.00,Wunderground v.1.15,2013-01-18 11:07:00,
2013-01-18 03:17:00,31.8,31.8,30.22,ESE,113,0.0,0.0,100,0.00,,,0.00,Wunderground v.1.15,2013-01-18 11:17:00,
2013-01-18 03:22:00,31.9,31.9,30.22,ESE,113,0.0,0.0,100,0.00,,,0.00,Wunderground v.1.15,2013-01-18 11:22:00,
2013-01-18 03:32:00,31.9,31.9,30.22,ESE,113,0.0,0.0,100,0.00,,,0.00,Wunderground v.1.15,2013-01-18 11:32:00,
2013-01-18 03:42:00,31.8,31.8,30.22,ESE,113,0.0,0.0,100,0.00,,,0.00,Wunderground v.1.15,2013-01-18 11:42:00,
2013-01-18 03:47:00,31.6,31.6,30.22,ESE,113,0.0,0.0,100,0.00,,,0.00,Wunderground v.1.15,2013-01-18 11:47:00,
2013-01-18 03:57:00,31.6,31.6,30.22,ESE,113,0.0,0.0,100,0.00,,,0.00,Wunderground v.1.15,2013-01-18 11:57:00,
2013-01-18 04:07:00,31.5,31.5,30.22,ESE,113,0.0,2.0,100,0.00,,,0.00,Wunderground v.1.15,2013-01-18 12:07:00,
2013-01-18 04:12:00,31.5,31.5,30.22,ESE,113,0.0,0.0,100,0.00,,,0.00,Wunderground v.1.15,2013-01-18 12:12:00,
2013-01-18 04:22:00,31.3,31.3,30.22,ESE,113,0.0,0.0,100,0.00,,,0.00,Wunderground v.1.15,2013-01-18 12:22:00,
2013-01-18 04:27:00,31.3,31.3,30.22,ESE,113,0.0,0.0,100,0.00,,,0.00,Wunderground v.1.15,2013-01-18 12:27:00,
2013-01-18 04:37:00,31.0,31.0,30.22,ESE,113,0.0,0.0,100,0.00,,,0.00,Wunderground v.1.15,2013-01-18 12:37:00,
2013-01-18 04:47:00,30.9,30.9,30.22,ESE,113,0.0,0.0,100,0.00,,,0.00,Wunderground v.1.15,2013-01-18 12:47:00,
2013-01-18 04:57:00,30.7,30.7,30.22,ESE,113,0.0,0.0,100,0.00,,,0.00,Wunderground v.1.15,2013-01-18 12:57:00,
2013-01-18 05:02:00,30.7,30.7,30.21,ESE,113,0.0,0.0,100,0.00,,,0.00,Wunderground v.1.15,2013-01-18 13:02:00,
2013-01-18 05:07:00,30.7,30.7,30.21,ESE,113,0.0,0.0,100,0.00,,,0.00,Wunderground v.1.15,2013-01-18 13:07:00,
2013-01-18 05:17:00,30.7,30.7,30.21,ESE,113,0.0,0.0,100,0.00,,,0.00,Wunderground v.1.15,2013-01-18 13:17:00,
2013-01-18 05:27:00,30.6,30.6,30.21,ESE,113,0.0,0.0,100,0.00,,,0.00,Wunderground v.1.15,2013-01-18 13:27:00,
2013-01-18 05:37:00,30.7,30.7,30.21,ESE,113,0.0,0.0,100,0.00,,,0.00,Wunderground v.1.15,2013-01-18 13:37:00,
2013-01-18 05:42:00,30.6,30.6,30.21,ESE,113,0.0,0.0,100,0.00,,,0.00,Wunderground v.1.15,2013-01-18 13:42:00,
2013-01-18 05:52:00,30.7,30.7,30.21,ESE,113,0.0,0.0,100,0.00,,,0.00,Wunderground v.1.15,2013-01-18 13:52:00,
2013-01-18 06:02:00,30.9,30.9,30.21,ESE,113,0.0,0.0,100,0.00,,,0.00,Wunderground v.1.15,2013-01-18 14:02:00,
2013-01-18 06:07:00,30.7,30.7,30.21,ESE,113,0.0,0.0,100,0.00,,,0.00,Wunderground v.1.15,2013-01-18 14:07:00,
2013-01-18 06:12:00,30.9,30.9,30.21,ESE,113,0.0,0.0,100,0.00,,,0.00,Wunderground v.1.15,2013-01-18 14:12:00,
2013-01-18 06:22:00,31.0,31.0,30.21,ESE,113,0.0,0.0,100,0.00,,,0.00,Wunderground v.1.15,2013-01-18 14:22:00,
2013-01-18 06:32:00,31.3,31.3,30.21,ESE,114,0.0,0.0,100,0.00,,,0.00,Wunderground v.1.15,2013-01-18 14:32:00,
2013-01-18 06:42:00,31.0,31.0,30.21,ESE,114,0.0,0.0,100,0.00,,,0.00,Wunderground v.1.15,2013-01-18 14:42:00,
2013-01-18 06:47:00,31.2,31.2,30.21,ESE,114,0.0,0.0,100,0.00,,,0.00,Wunderground v.1.15,2013-01-18 14:47:00,
2013-01-18 06:57:00,31.3,31.3,30.21,SE,140,0.0,3.0,100,0.00,,,0.00,Wunderground v.1.15,2013-01-18 14:57:00,
2013-01-18 07:07:00,31.3,31.3,30.21,SE,143,0.0,2.0,100,0.00,,,0.00,Wunderground v.1.15,2013-01-18 15:07:00,
2013-01-18 07:12:00,31.3,31.3,30.21,SE,143,0.0,0.0,100,0.00,,,0.00,Wunderground v.1.15,2013-01-18 15:12:00,
2013-01-18 07:22:00,31.3,31.3,30.21,SE,136,0.0,0.0,100,0.00,,,0.00,Wunderground v.1.15,2013-01-18 15:22:00,
2013-01-18 07:27:00,31.2,31.2,30.21,SE,136,0.0,0.0,100,0.00,,,0.00,Wunderground v.1.15,2013-01-18 15:27:00,
2013-01-18 07:37:00,30.7,30.7,30.22,SE,136,0.0,0.0,100,0.00,,,0.00,Wunderground v.1.15,2013-01-18 15:37:00,
2013-01-18 07:47:00,30.6,30.6,30.22,SE,136,0.0,0.0,100,0.00,,,0.00,Wunderground v.1.15,2013-01-18 15:47:00,
2013-01-18 07:57:00,30.6,30.6,30.22,SE,136,0.0,0.0,100,0.00,,,0.00,Wunderground v.1.15,2013-01-18 15:57:00,
2013-01-18 08:02:00,30.6,30.6,30.22,SE,136,0.0,3.0,100,0.00,,,0.00,Wunderground v.1.15,2013-01-18 16:02:00,
2013-01-18 08:07:00,30.6,30.6,30.22,SE,136,0.0,3.0,100,0.00,,,0.00,Wunderground v.1.15,2013-01-18 16:07:00,
2013-01-18 08:17:00,30.9,30.9,30.22,ESE,112,0.0,0.0,100,0.00,,,0.00,Wunderground v.1.15,2013-01-18 16:17:00,
2013-01-18 08:27:00,31.0,31.0,30.22,ESE,116,0.0,0.0,100,0.00,,,0.00,Wunderground v.1.15,2013-01-18 16:27:00,
2013-01-18 08:32:00,31.0,31.0,30.23,ESE,116,0.0,0.0,100,0.00,,,0.00,Wunderground v.1.15,2013-01-18 16:32:00,
2013-01-18 08:42:00,31.0,31.0,30.23,ESE,116,0.0,0.0,100,0.00,,,0.00,Wunderground v.1.15,2013-01-18 16:42:00,
2013-01-18 08:47:00,31.2,31.2,30.23,ESE,116,0.0,0.0,100,0.00,,,0.00,Wunderground v.1.15,2013-01-18 16:47:00,
2013-01-18 08:57:00,31.5,31.5,30.23,SE,127,0.0,2.0,100,0.00,,,0.00,Wunderground v.1.15,2013-01-18 16:57:00,
2013-01-18 09:07:00,32.1,32.1,30.23,SE,128,0.0,0.0,100,0.00,,,0.00,Wunderground v.1.15,2013-01-18 17:07:00,
2013-01-18 09:17:00,32.9,32.9,30.24,SSE,148,0.0,3.0,100,0.00,,,0.00,Wunderground v.1.15,2013-01-18 17:17:00,
2013-01-18 09:27:00,33.7,33.7,30.24,SSE,158,0.0,1.0,100,0.00,,,0.00,Wunderground v.1.15,2013-01-18 17:27:00,
2013-01-18 09:32:00,34.0,34.0,30.24,ESE,123,1.0,2.0,100,0.00,,,0.00,Wunderground v.1.15,2013-01-18 17:32:00,
2013-01-18 09:42:00,34.4,34.4,30.24,WSW,237,1.0,4.0,100,0.00,,,0.00,Wunderground v.1.15,2013-01-18 17:42:00,
2013-01-18 09:47:00,34.4,34.4,30.24,SSE,160,1.0,7.0,100,0.00,,,0.00,Wunderground v.1.15,2013-01-18 17:47:00,
2013-01-18 09:57:00,34.7,34.7,30.24,SSE,155,1.0,2.0,100,0.00,,,0.01,Wunderground v.1.15,2013-01-18 17:57:00,
2013-01-18 10:07:00,35.5,35.5,30.24,South,172,2.0,6.0,100,0.00,,,0.01,Wunderground v.1.15,2013-01-18 18:07:00,
2013-01-18 10:17:00,36.3,36.3,30.24,ESE,119,1.0,4.0,100,0.00,,,0.01,Wunderground v.1.15,2013-01-18 18:17:00,
2013-01-18 10:27:00,36.3,36.3,30.24,SSE,155,2.0,3.0,100,0.00,,,0.01,Wunderground v.1.15,2013-01-18 18:27:00,
2013-01-18 10:32:00,36.2,36.2,30.24,SW,217,2.0,2.0,100,0.00,,,0.01,Wunderground v.1.15,2013-01-18 18:32:00,
2013-01-18 10:42:00,36.8,36.8,30.24,SSE,167,2.0,2.0,100,0.00,,,0.01,Wunderground v.1.15,2013-01-18 18:42:00,
2013-01-18 10:47:00,37.0,37.0,30.24,SSE,164,1.0,2.0,100,0.00,,,0.01,Wunderground v.1.15,2013-01-18 18:47:00,
2013-01-18 10:57:00,37.6,37.6,30.24,SE,141,1.0,5.0,100,0.00,,,0.01,Wunderground v.1.15,2013-01-18 18:57:00,
2013-01-18 11:07:00,37.5,37.5,30.24,South,175,2.0,10.0,100,0.00,,,0.01,Wunderground v.1.15,2013-01-18 19:07:00,
2013-01-18 11:17:00,37.8,37.8,30.23,South,176,3.0,3.0,100,0.00,,,0.01,Wunderground v.1.15,2013-01-18 19:17:00,
2013-01-18 11:27:00,38.5,38.5,30.23,ESE,114,3.0,3.0,100,0.00,,,0.01,Wunderground v.1.15,2013-01-18 19:27:00,
2013-01-18 11:32:00,38.5,38.5,30.23,SE,131,2.0,7.0,100,0.00,,,0.01,Wunderground v.1.15,2013-01-18 19:32:00,
2013-01-18 11:42:00,39.1,39.1,30.23,SSE,147,2.0,2.0,100,0.00,,,0.01,Wunderground v.1.15,2013-01-18 19:42:00,
2013-01-18 11:52:00,39.6,39.6,30.22,SSW,213,1.0,5.0,100,0.00,,,0.01,Wunderground v.1.15,2013-01-18 19:52:00,
2013-01-18 11:57:00,39.8,39.8,30.22,SW,215,2.0,5.0,100,0.00,,,0.01,Wunderground v.1.15,2013-01-18 19:57:00,
2013-01-18 12:07:00,39.9,39.4,30.22,South,184,2.0,2.0,98,0.00,,,0.01,Wunderground v.1.15,2013-01-18 20:07:00,
2013-01-18 12:17:00,40.2,39.4,30.21,West,265,2.0,2.0,97,0.00,,,0.01,Wunderground v.1.15,2013-01-18 20:17:00,
2013-01-18 12:27:00,40.9,38.5,30.21,SE,143,2.0,2.0,91,0.00,,,0.01,Wunderground v.1.15,2013-01-18 20:27:00,
2013-01-18 12:32:00,41.1,38.1,30.21,SSE,164,2.0,2.0,89,0.00,,,0.01,Wunderground v.1.15,2013-01-18 20:32:00,
2013-01-18 12:42:00,41.5,37.3,30.21,SW,222,2.0,2.0,85,0.00,,,0.01,Wunderground v.1.15,2013-01-18 20:42:00,
2013-01-18 12:52:00,42.1,38.5,30.21,SE,134,1.0,1.0,87,0.00,,,0.01,Wunderground v.1.15,2013-01-18 20:52:00,
2013-01-18 12:57:00,42.2,38.6,30.21,South,186,1.0,1.0,87,0.00,,,0.01,Wunderground v.1.15,2013-01-18 20:57:00,
2013-01-18 13:07:00,42.5,39.5,30.20,South,186,1.0,1.0,89,0.00,,,0.01,Wunderground v.1.15,2013-01-18 21:07:00,
2013-01-18 13:17:00,42.6,38.1,30.20,SSE,160,2.0,2.0,84,0.00,,,0.01,Wunderground v.1.15,2013-01-18 21:17:00,
2013-01-18 13:27:00,43.3,37.9,30.20,SE,137,1.0,3.0,81,0.00,,,0.01,Wunderground v.1.15,2013-01-18 21:27:00,
2013-01-18 13:37:00,43.8,37.7,30.19,ESE,123,0.0,1.0,79,0.00,,,0.01,Wunderground v.1.15,2013-01-18 21:37:00,
2013-01-18 13:47:00,44.5,37.7,30.18,South,171,0.0,9.0,77,0.00,,,0.01,Wunderground v.1.15,2013-01-18 21:47:00,
2013-01-18 13:57:00,44.8,37.7,30.18,SE,126,2.0,2.0,76,0.00,,,0.01,Wunderground v.1.15,2013-01-18 21:57:00,
2013-01-18 14:02:00,45.1,37.3,30.18,SE,130,1.0,1.0,74,0.00,,,0.01,Wunderground v.1.15,2013-01-18 22:02:00,
2013-01-18 14:07:00,45.4,36.9,30.18,SSE,158,0.0,1.0,72,0.00,,,0.01,Wunderground v.1.15,2013-01-18 22:07:00,
2013-01-18 14:17:00,45.5,37.0,30.18,SSE,148,1.0,1.0,72,0.00,,,0.01,Wunderground v.1.15,2013-01-18 22:17:00,
2013-01-18 14:52:00,46.5,39.0,30.18,SSE,158,0.0,0.0,75,0.00,,,0.01,Wunderground v.1.15,2013-01-18 22:52:00,
2013-01-18 14:57:00,46.4,39.2,30.18,East,99,0.0,0.0,76,0.00,,,0.01,Wunderground v.1.15,2013-01-18 22:57:00,
2013-01-18 15:07:00,46.1,39.0,30.18,SSE,154,0.0,0.0,76,0.00,,,0.01,Wunderground v.1.15,2013-01-18 23:07:00,
2013-01-18 15:12:00,45.8,38.7,30.18,SSE,167,1.0,1.0,76,0.00,,,0.01,Wunderground v.1.15,2013-01-18 23:12:00,
2013-01-18 15:22:00,45.5,39.0,30.18,South,175,1.0,1.0,78,0.00,,,0.01,Wunderground v.1.15,2013-01-18 23:22:00,
2013-01-18 15:27:00,45.5,38.7,30.18,SSE,161,0.0,1.0,77,0.00,,,0.01,Wunderground v.1.15,2013-01-18 23:27:00,
2013-01-18 15:37:00,45.7,38.9,30.18,SSE,165,0.0,1.0,77,0.00,,,0.01,Wunderground v.1.15,2013-01-18 23:37:00,
2013-01-18 15:47:00,45.8,39.3,30.18,SE,143,1.0,5.0,78,0.00,,,0.01,Wunderground v.1.15,2013-01-18 23:47:00,
2013-01-18 15:57:00,46.1,39.0,30.18,SE,140,0.0,1.0,76,0.00,,,0.01,Wunderground v.1.15,2013-01-18 23:57:00,
2013-01-18 16:07:00,46.5,39.0,30.18,South,169,0.0,5.0,75,0.00,,,0.01,Wunderground v.1.15,2013-01-19 00:07:00,
2013-01-18 16:17:00,47.1,38.2,30.18,SE,140,0.0,0.0,71,0.00,,,0.01,Wunderground v.1.15,2013-01-19 00:17:00,
2013-01-18 16:27:00,47.7,38.0,30.18,South,169,0.0,0.0,69,0.00,,,0.01,Wunderground v.1.15,2013-01-19 00:27:00,
2013-01-18 16:32:00,47.9,38.2,30.17,South,171,0.0,0.0,69,0.00,,,0.01,Wunderground v.1.15,2013-01-19 00:32:00,
2013-01-18 16:42:00,47.7,38.8,30.17,SSE,154,0.0,0.0,71,0.00,,,0.01,Wunderground v.1.15,2013-01-19 00:42:00,
2013-01-18 16:47:00,47.3,40.5,30.17,SSE,154,0.0,0.0,77,0.00,,,0.01,Wunderground v.1.15,2013-01-19 00:47:00,
2013-01-18 16:57:00,46.2,42.5,30.17,SSE,154,0.0,0.0,87,0.00,,,0.01,Wunderground v.1.15,2013-01-19 00:57:00,
2013-01-18 17:07:00,45.5,44.2,30.17,SSE,154,0.0,2.0,95,0.00,,,0.01,Wunderground v.1.15,2013-01-19 01:07:00,
2013-01-18 17:12:00,44.9,42.7,30.17,SSE,154,0.0,0.0,92,0.00,,,0.01,Wunderground v.1.15,2013-01-19 01:12:00,
2013-01-18 17:22:00,43.6,43.6,30.18,SSE,152,0.0,0.0,100,0.00,,,0.01,Wunderground v.1.15,2013-01-19 01:22:00,
2013-01-18 17:27:00,43.3,43.3,30.18,SSE,152,0.0,0.0,100,0.00,,,0.01,Wunderground v.1.15,2013-01-19 01:27:00,
2013-01-18 17:32:00,43.2,43.2,30.18,SE,141,0.0,0.0,100,0.00,,,0.01,Wunderground v.1.15,2013-01-19 01:32:00,
2013-01-18 17:42:00,42.1,42.1,30.18,SE,140,0.0,0.0,100,0.00,,,0.01,Wunderground v.1.15,2013-01-19 01:42:00,
2013-01-18 17:47:00,41.3,41.3,30.18,East,93,0.0,0.0,100,0.00,,,0.01,Wunderground v.1.15,2013-01-19 01:47:00,
2013-01-18 17:57:00,40.6,40.6,30.18,NNE,27,0.0,0.0,100,0.00,,,0.01,Wunderground v.1.15,2013-01-19 01:57:00,
2013-01-18 18:02:00,40.1,40.1,30.19,NNE,23,0.0,0.0,100,0.00,,,0.01,Wunderground v.1.15,2013-01-19 02:02:00,
2013-01-18 18:12:00,39.5,39.5,30.19,NNE,24,0.0,0.0,100,0.00,,,0.01,Wunderground v.1.15,2013-01-19 02:12:00,
2013-01-18 18:17:00,39.1,39.1,30.19,NNE,30,0.0,0.0,100,0.00,,,0.01,Wunderground v.1.15,2013-01-19 02:17:00,
2013-01-18 18:27:00,38.8,38.8,30.19,North,7,0.0,0.0,100,0.00,,,0.01,Wunderground v.1.15,2013-01-19 02:27:00,
2013-01-18 18:37:00,38.5,38.5,30.19,NNE,25,1.0,5.0,100,0.00,,,0.01,Wunderground v.1.15,2013-01-19 02:37:00,
2013-01-18 18:42:00,38.2,38.2,30.19,North,0,1.0,2.0,100,0.00,,,0.01,Wunderground v.1.15,2013-01-19 02:42:00,
2013-01-18 18:52:00,38.0,38.0,30.20,North,4,2.0,2.0,100,0.00,,,0.01,Wunderground v.1.15,2013-01-19 02:52:00,
2013-01-18 18:57:00,37.9,37.9,30.20,North,1,2.0,2.0,100,0.00,,,0.01,Wunderground v.1.15,2013-01-19 02:57:00,
2013-01-18 19:07:00,37.6,37.6,30.20,NE,49,2.0,6.0,100,0.00,,,0.01,Wunderground v.1.15,2013-01-19 03:07:00,
2013-01-18 19:12:00,37.5,37.5,30.20,North,7,2.0,2.0,100,0.00,,,0.01,Wunderground v.1.15,2013-01-19 03:12:00,
2013-01-18 19:22:00,37.0,37.0,30.20,North,8,3.0,3.0,100,0.00,,,0.01,Wunderground v.1.15,2013-01-19 03:22:00,
2013-01-18 19:27:00,36.8,36.8,30.20,NNE,23,2.0,3.0,100,0.00,,,0.01,Wunderground v.1.15,2013-01-19 03:27:00,
2013-01-18 19:37:00,36.2,36.2,30.20,North,0,0.0,1.0,100,0.00,,,0.01,Wunderground v.1.15,2013-01-19 03:37:00,
2013-01-18 19:47:00,35.8,35.8,30.20,ENE,62,0.0,0.0,100,0.00,,,0.01,Wunderground v.1.15,2013-01-19 03:47:00,
2013-01-18 19:57:00,35.5,35.5,30.20,NNE,21,1.0,1.0,100,0.00,,,0.01,Wunderground v.1.15,2013-01-19 03:57:00,
2013-01-18 20:07:00,35.2,35.2,30.21,NE,40,1.0,7.0,100,0.00,,,0.01,Wunderground v.1.15,2013-01-19 04:07:00,
2013-01-18 20:17:00,35.0,35.0,30.20,ENE,62,0.0,0.0,100,0.00,,,0.01,Wunderground v.1.15,2013-01-19 04:17:00,
2013-01-18 20:27:00,34.6,34.6,30.20,ENE,58,0.0,0.0,100,0.00,,,0.01,Wunderground v.1.15,2013-01-19 04:27:00,
2013-01-18 20:32:00,34.3,34.3,30.21,ENE,69,0.0,0.0,100,0.00,,,0.01,Wunderground v.1.15,2013-01-19 04:32:00,
2013-01-18 20:42:00,34.0,34.0,30.21,NE,35,0.0,0.0,100,0.00,,,0.01,Wunderground v.1.15,2013-01-19 04:42:00,
2013-01-18 20:47:00,34.0,34.0,30.21,NE,35,0.0,0.0,100,0.00,,,0.01,Wunderground v.1.15,2013-01-19 04:47:00,
2013-01-18 20:57:00,33.4,33.4,30.21,NNE,18,0.0,1.0,100,0.00,,,0.01,Wunderground v.1.15,2013-01-19 04:57:00,
2013-01-18 21:02:00,33.4,33.4,30.22,NNE,27,0.0,7.0,100,0.00,,,0.01,Wunderground v.1.15,2013-01-19 05:02:00,
2013-01-18 21:07:00,33.4,33.4,30.22,NNE,16,0.0,7.0,100,0.00,,,0.01,Wunderground v.1.15,2013-01-19 05:07:00,
2013-01-18 21:17:00,32.9,32.9,30.22,NNE,27,1.0,1.0,100,0.00,,,0.01,Wunderground v.1.15,2013-01-19 05:17:00,
2013-01-18 21:22:00,32.9,32.9,30.22,NNE,23,0.0,0.0,100,0.00,,,0.01,Wunderground v.1.15,2013-01-19 05:22:00,
2013-01-18 21:27:00,33.1,33.1,30.22,NNE,24,0.0,0.0,100,0.00,,,0.01,Wunderground v.1.15,2013-01-19 05:27:00,
2013-01-18 21:32:00,33.2,33.2,30.22,NNE,24,0.0,0.0,100,0.00,,,0.01,Wunderground v.1.15,2013-01-19 05:32:00,
2013-01-18 21:37:00,33.2,33.2,30.22,NNE,24,0.0,0.0,100,0.00,,,0.01,Wunderground v.1.15,2013-01-19 05:37:00,
2013-01-18 21:47:00,33.2,33.2,30.22,NNE,16,0.0,0.0,100,0.00,,,0.01,Wunderground v.1.15,2013-01-19 05:47:00,
2013-01-18 21:52:00,33.2,33.2,30.22,NNE,21,0.0,0.0,100,0.00,,,0.01,Wunderground v.1.15,2013-01-19 05:52:00,
2013-01-18 22:02:00,33.5,33.5,30.22,NE,48,0.0,5.0,100,0.00,,,0.01,Wunderground v.1.15,2013-01-19 06:02:00,
2013-01-18 22:07:00,33.7,33.7,30.22,NE,47,0.0,5.0,100,0.00,,,0.01,Wunderground v.1.15,2013-01-19 06:07:00,
2013-01-18 22:12:00,33.8,33.8,30.22,North,10,0.0,3.0,100,0.00,,,0.01,Wunderground v.1.15,2013-01-19 06:12:00,
2013-01-18 22:22:00,34.0,34.0,30.22,NNE,23,2.0,2.0,100,0.00,,,0.01,Wunderground v.1.15,2013-01-19 06:22:00,
2013-01-18 22:27:00,34.0,34.0,30.22,North,8,2.0,2.0,100,0.00,,,0.01,Wunderground v.1.15,2013-01-19 06:27:00,
2013-01-18 22:37:00,33.8,33.8,30.22,North,0,2.0,3.0,100,0.00,,,0.01,Wunderground v.1.15,2013-01-19 06:37:00,
2013-01-18 22:47:00,33.8,33.8,30.22,NNE,27,1.0,1.0,100,0.00,,,0.01,Wunderground v.1.15,2013-01-19 06:47:00,
2013-01-18 22:57:00,33.7,33.7,30.22,North,0,2.0,2.0,100,0.00,,,0.01,Wunderground v.1.15,2013-01-19 06:57:00,
2013-01-18 23:07:00,33.7,33.7,30.22,NNW,347,2.0,3.0,100,0.00,,,0.01,Wunderground v.1.15,2013-01-19 07:07:00,
2013-01-18 23:17:00,33.5,33.5,30.23,NNE,24,1.0,3.0,100,0.00,,,0.01,Wunderground v.1.15,2013-01-19 07:17:00,
2013-01-18 23:27:00,33.5,33.5,30.23,North,0,2.0,2.0,100,0.00,,,0.01,Wunderground v.1.15,2013-01-19 07:27:00,
2013-01-18 23:37:00,33.4,33.4,30.23,NNE,24,1.0,5.0,100,0.00,,,0.01,Wunderground v.1.15,2013-01-19 07:37:00,
2013-01-18 23:47:00,33.5,33.5,30.23,NE,47,1.0,5.0,100,0.00,,,0.01,Wunderground v.1.15,2013-01-19 07:47:00,
2013-01-18 23:57:00,33.4,33.4,30.23,NNE,16,4.0,5.0,100,0.00,,,0.01,Wunderground v.1.15,2013-01-19 07:57:00,